Date,TemperatureHighF,TemperatureAvgF,TemperatureLowF,DewpointHighF,DewpointAvgF,DewpointLowF,HumidityHigh,HumidityAvg,HumidityLow,PressureMaxIn,PressureMinIn,WindSpeedMaxMPH,WindSpeedAvgMPH,GustSpeedMaxMPH,PrecipitationSumIn
2013-1-1,61.8,51.3,42.9,38.0,32.6,21.0,82,53,21,30.22,30.06,15,2,23,0.00
2013-1-2,66.6,49.6,40.3,38.0,27.7,-99.9,68,49,17,30.11,30.00,14,-22,20,0.00
2013-1-3,71.3,54.5,40.8,33.0,26.5,16.0,65,40,12,30.16,30.04,13,1,21,0.00
2013-1-4,68.1,54.2,45.4,35.0,22.9,13.0,61,33,13,30.27,30.14,11,2,18,0.00
2013-1-5,67.6,51.8,40.9,40.0,28.7,19.0,73,45,16,30.28,30.16,17,1,21,0.03
2013-1-6,57.8,50.7,44.8,48.0,43.6,38.0,95,77,55,30.19,30.01,18,4,33,0.04
2013-1-7,66.6,52.5,39.9,43.0,39.5,30.0,94,65,27,30.07,29.93,26,3,31,0.00
2013-1-8,73.3,54.9,41.8,50.0,41.2,29.0,89,64,20,30.08,29.99,23,2,30,0.00
2013-1-9,68.6,55.6,45.7,52.0,45.8,40.0,89,72,35,30.10,29.98,15,1,22,0.00
2013-1-10,59.0,53.5,46.5,50.0,34.2,19.0,91,53,22,30.07,29.88,35,12,43,0.01
2013-1-11,55.7,49.1,42.5,29.0,22.4,18.0,52,36,26,30.17,30.02,33,14,50,0.00
2013-1-12,57.5,46.7,35.8,30.0,24.0,16.0,67,43,20,30.15,30.04,15,3,28,0.00
2013-1-13,56.9,46.1,38.8,31.0,24.5,13.0,67,46,18,30.16,30.03,24,4,28,0.00
2013-1-14,56.3,44.6,31.8,29.0,14.2,2.0,66,33,12,30.31,30.11,14,2,24,0.00
2013-1-15,61.5,47.2,35.6,36.0,22.8,11.0,71,43,15,30.43,30.29,22,4,33,0.00
2013-1-16,70.8,52.5,38.9,38.0,31.3,23.0,70,49,18,30.33,30.10,20,2,27,0.00
2013-1-17,79.6,60.5,44.5,34.0,27.1,21.0,58,33,12,30.14,30.00,16,2,25,0.00
2013-1-18,81.6,63.4,49.1,33.0,24.4,21.0,38,24,11,30.11,29.99,21,4,30,0.00
2013-1-19,80.9,64.0,49.8,29.0,22.4,18.0,34,22,10,30.15,30.03,16,4,25,0.00
2013-1-20,82.0,63.0,49.1,30.0,20.6,13.0,38,22,8,30.11,29.96,17,3,35,0.00
2013-1-21,82.8,63.1,47.6,28.0,20.7,14.0,34,22,8,30.06,29.95,20,3,27,0.00
2013-1-22,82.2,64.2,52.6,31.0,21.0,13.0,38,21,8,30.06,29.95,17,2,24,0.00
2013-1-23,75.8,64.3,54.8,52.0,34.4,25.0,76,35,21,30.11,29.97,7,0,18,0.01
2013-1-24,66.8,60.3,55.0,56.0,53.6,50.0,93,79,62,30.18,30.07,14,3,26,0.38
2013-1-25,67.9,62.3,59.5,59.0,57.3,56.0,92,84,66,30.10,29.92,21,2,29,0.08
2013-1-26,67.1,60.8,56.2,61.0,57.0,54.0,96,88,67,29.98,29.86,17,2,31,0.13
2013-1-27,61.3,55.6,48.6,55.0,47.6,37.0,96,76,54,30.00,29.93,17,3,34,0.03
2013-1-28,61.8,51.4,40.8,39.0,31.4,24.0,85,50,24,30.16,30.00,30,7,44,0.00
2013-1-29,60.9,50.7,41.1,44.0,37.1,29.0,82,61,36,30.22,30.12,18,2,29,0.00
2013-1-30,71.5,55.4,42.8,44.0,40.1,35.0,88,61,27,30.32,30.18,12,1,20,0.00
2013-1-31,78.8,59.2,45.4,46.0,41.3,36.0,81,56,22,30.22,30.06,14,1,23,0.00
2013-2-1,74.9,61.0,47.4,49.0,42.7,38.0,77,54,27,30.14,30.07,14,1,26,0.00
2013-2-2,77.0,64.4,54.4,52.0,45.3,37.0,77,54,24,30.16,30.06,15,1,22,0.00
2013-2-3,76.7,63.7,54.4,52.0,48.3,42.0,86,60,30,30.11,29.96,21,3,31,0.00
2013-2-4,70.8,57.2,47.7,54.0,50.7,46.0,93,80,51,30.08,29.94,15,2,22,0.00
2013-2-5,59.6,55.6,53.6,52.0,49.9,48.0,89,81,69,30.07,29.96,12,1,22,0.00
2013-2-6,65.2,56.8,49.9,50.0,47.7,44.0,88,73,50,30.09,29.98,14,2,20,0.00
2013-2-7,62.0,53.2,44.3,49.0,45.7,42.0,94,77,60,30.12,29.97,19,3,28,0.00
2013-2-8,53.8,48.9,42.2,47.0,40.4,37.0,87,73,61,29.98,29.86,26,5,43,0.18
2013-2-9,58.0,47.5,37.8,40.0,37.3,33.0,93,70,41,30.09,29.93,11,2,24,0.01
2013-2-10,57.6,49.9,43.1,44.0,40.5,38.0,84,71,52,30.10,30.00,12,2,22,0.00
2013-2-11,62.0,50.8,39.9,44.0,39.4,35.0,91,67,37,30.22,30.05,16,2,32,0.00
2013-2-12,65.8,52.3,41.1,43.0,34.4,23.0,77,55,24,30.33,30.20,15,2,23,0.00
2013-2-13,69.6,53.7,41.3,44.0,37.5,30.0,83,58,23,30.25,30.10,18,2,24,0.00
2013-2-14,77.4,56.6,43.1,48.0,40.8,31.0,84,61,20,30.17,30.01,16,2,20,0.00
2013-2-15,82.4,65.1,50.1,43.0,31.3,24.0,71,33,12,30.16,30.08,12,1,17,0.00
2013-2-16,82.6,65.9,52.9,33.0,24.4,17.0,44,23,9,30.13,29.94,16,4,28,0.00
2013-2-17,67.6,55.4,45.7,52.0,43.6,31.0,94,66,36,30.01,29.89,18,2,26,0.00
2013-2-18,64.0,56.3,53.1,48.0,45.5,44.0,78,68,49,30.05,29.92,15,3,27,0.00
2013-2-19,55.4,52.2,47.3,47.0,42.1,39.0,89,69,57,29.96,29.70,22,4,29,0.10
2013-2-20,60.2,51.1,42.1,42.0,32.6,25.0,82,51,32,29.98,29.68,41,11,49,0.00
2013-2-21,63.7,52.0,44.1,42.0,39.0,33.0,79,63,32,30.07,29.94,22,2,28,0.00
2013-2-22,66.1,53.3,42.1,45.0,38.4,27.0,83,61,23,30.18,30.08,20,2,32,0.00
2013-2-23,65.0,53.1,41.3,48.0,41.6,36.0,87,67,36,30.14,29.90,24,3,40,0.00
2013-2-24,68.9,55.1,44.5,47.0,33.3,15.0,92,54,13,30.18,29.97,23,4,34,0.00
2013-2-25,69.6,54.7,43.1,43.0,29.4,17.0,75,43,15,30.21,30.04,20,2,28,0.00
2013-2-26,74.7,56.1,42.8,47.0,35.3,24.0,76,51,15,30.09,29.94,18,2,26,0.00
2013-2-27,76.5,61.0,49.4,39.0,26.0,16.0,63,30,11,30.23,30.09,23,3,33,0.00
2013-2-28,80.1,62.8,49.5,40.0,26.2,14.0,60,29,9,30.28,30.19,17,3,33,0.00
2013-3-1,87.6,68.5,52.5,41.0,27.8,22.0,61,25,9,30.27,30.09,23,3,32,0.00
2013-3-2,84.9,69.0,57.3,48.0,32.5,27.0,70,29,13,30.17,30.03,21,3,28,0.00
2013-3-3,69.9,60.2,55.1,53.0,48.4,34.0,89,68,28,30.07,29.94,18,2,25,0.00
2013-3-4,69.9,59.2,53.5,53.0,50.6,48.0,89,75,48,30.07,29.98,13,2,29,0.00
2013-3-5,65.6,56.3,51.0,51.0,49.7,46.0,91,79,59,30.11,30.00,21,3,44,0.00
2013-3-6,64.8,56.5,49.1,50.0,44.5,40.0,87,66,42,30.13,29.99,23,2,43,0.00
2013-3-7,60.4,56.1,53.1,53.0,48.4,43.0,93,77,54,29.99,29.82,0,0,9,0.12
2013-3-8,59.0,53.2,46.5,48.0,43.7,34.0,92,72,40,29.99,29.77,26,5,39,0.11
2013-3-9,64.3,55.5,47.9,48.0,44.5,37.0,90,69,40,30.19,29.99,27,2,28,0.00
2013-3-10,72.5,58.5,44.3,46.0,41.1,31.0,86,57,23,30.25,30.12,14,1,23,0.00
2013-3-11,77.9,60.0,45.5,51.0,42.4,33.0,78,56,21,30.15,30.00,0,0,0,0.00
2013-3-12,80.3,63.3,47.7,51.0,46.2,38.0,88,59,26,30.06,29.96,4,0,10,0.00
2013-3-13,86.7,63.6,49.6,52.0,48.1,42.0,91,64,25,30.08,29.97,0,0,0,0.00
2013-3-14,81.1,63.2,52.3,56.0,51.5,45.0,97,70,33,30.06,29.96,25,3,35,0.00
2013-3-15,73.3,61.1,54.1,55.0,53.1,50.0,95,77,44,30.01,29.89,20,1,30,0.00
2013-3-16,69.4,58.3,52.5,53.0,50.8,48.0,94,78,50,29.95,29.85,18,2,33,0.00
2013-3-17,69.8,59.9,54.5,52.0,50.9,50.0,88,74,52,29.97,29.89,19,3,31,0.00
2013-3-18,67.3,59.3,54.7,52.0,50.6,50.0,83,74,55,30.05,29.96,18,3,25,0.00
2013-3-19,69.8,58.1,51.0,53.0,50.7,48.0,91,77,54,30.09,30.01,19,2,32,0.00
2013-3-20,73.0,60.8,52.5,54.0,51.1,48.0,92,72,49,30.07,29.93,18,3,26,0.00
2013-3-21,73.7,61.6,52.9,54.0,51.3,48.0,90,71,40,29.93,29.77,22,3,28,0.00
2013-3-22,72.0,60.8,55.4,54.0,51.7,49.0,90,74,46,29.88,29.78,22,3,33,0.00
2013-3-23,73.7,60.9,53.5,53.0,51.0,48.0,90,72,41,29.99,29.88,18,3,34,0.00
2013-3-24,78.1,62.1,55.3,54.0,51.9,41.0,91,72,27,30.00,29.85,13,1,22,0.00
2013-3-25,78.5,62.3,53.1,56.0,52.7,46.0,96,74,32,29.95,29.84,18,2,24,0.00
2013-3-26,72.1,61.9,55.7,55.0,52.7,50.0,92,74,48,29.94,29.86,23,4,29,0.00
2013-3-27,71.5,61.5,55.3,53.0,51.2,49.0,87,70,47,30.01,29.90,18,2,34,0.00
2013-3-28,76.0,62.4,55.4,54.0,52.5,50.0,88,72,41,30.04,29.97,21,3,31,0.00
2013-3-29,76.5,62.7,55.3,56.0,54.0,52.0,92,75,47,30.08,30.00,15,3,27,0.00
2013-3-30,74.2,61.7,56.0,55.0,52.9,49.0,92,74,45,30.10,30.02,20,4,29,0.00
2013-3-31,68.6,61.2,57.2,57.0,53.9,53.0,85,77,60,30.10,30.02,20,5,29,0.00
2013-4-1,67.8,59.7,53.6,53.0,51.3,47.0,90,75,53,30.14,30.04,26,5,41,0.00
2013-4-2,73.0,60.9,53.8,54.0,51.7,50.0,90,74,48,30.07,29.95,17,2,26,0.00
2013-4-3,77.0,63.0,55.3,56.0,53.7,52.0,91,74,45,30.06,29.94,18,4,24,0.00
2013-4-4,72.8,62.9,57.6,56.0,53.9,52.0,89,74,53,30.07,29.97,21,4,27,0.00
2013-4-5,70.4,62.7,58.7,56.0,54.7,54.0,89,76,57,30.05,29.96,16,3,28,0.00
2013-4-6,72.7,63.6,56.0,55.0,53.2,50.0,89,71,48,30.05,29.92,25,4,35,0.00
2013-4-7,73.5,62.9,56.7,56.0,53.8,52.0,89,74,49,29.93,29.78,26,2,35,0.00
2013-4-8,68.8,61.7,56.2,55.0,43.2,27.0,88,56,24,29.79,29.61,52,14,54,0.00
2013-4-9,75.8,64.5,57.2,46.0,32.2,20.0,63,32,13,29.97,29.79,35,9,46,0.00
2013-4-10,83.6,64.9,49.5,47.0,39.0,25.0,77,45,13,30.06,29.94,24,4,38,0.00
2013-4-11,75.1,62.6,53.8,54.0,48.0,37.0,80,62,27,29.96,29.74,23,4,34,0.00
2013-4-12,73.9,62.3,56.6,53.0,51.9,51.0,86,70,46,29.87,29.74,22,4,31,0.00
2013-4-13,62.7,58.9,56.6,54.0,52.9,50.0,90,81,72,29.89,29.81,14,2,23,0.00
2013-4-14,63.9,58.6,55.3,52.0,50.2,49.0,81,74,60,29.86,29.79,19,4,26,0.00
2013-4-15,65.3,59.0,56.0,54.0,50.1,47.0,89,73,59,29.87,29.80,28,7,38,0.00
2013-4-16,68.8,58.7,51.4,48.0,39.6,25.0,76,53,19,29.95,29.84,40,9,58,0.00
2013-4-17,74.6,63.0,55.0,42.0,28.0,17.0,62,29,12,30.09,29.96,37,10,44,0.00
2013-4-18,80.3,64.1,48.8,42.0,29.7,16.0,65,34,10,30.17,30.07,29,4,43,0.00
2013-4-19,85.9,68.6,53.5,50.0,31.5,15.0,66,32,8,30.13,29.93,25,4,37,0.00
2013-4-20,86.3,68.3,53.6,56.0,47.3,36.0,88,53,19,29.96,29.84,24,3,33,0.00
2013-4-21,80.7,65.9,56.6,59.0,52.9,44.0,95,68,28,29.98,29.89,22,3,29,0.00
2013-4-22,76.1,63.8,57.8,55.0,52.4,49.0,87,69,39,29.98,29.85,25,4,29,0.00
2013-4-23,78.6,63.5,57.6,54.0,51.2,49.0,81,66,37,29.94,29.81,20,4,27,0.00
2013-4-24,63.5,60.7,59.3,55.0,52.4,47.0,82,74,58,29.95,29.87,18,3,24,0.01
2013-4-25,73.7,63.9,58.6,53.0,50.3,47.0,81,63,39,30.08,29.93,22,4,31,0.00
2013-4-26,76.8,64.4,53.8,54.0,51.0,49.0,86,64,37,30.12,30.05,23,4,31,0.00
2013-4-27,76.8,64.9,54.4,57.0,53.6,52.0,92,69,46,30.12,29.95,18,3,28,0.00
2013-4-28,78.8,65.3,58.4,58.0,55.7,54.0,90,73,45,29.99,29.82,19,4,28,0.00
2013-4-29,73.2,63.5,58.0,56.0,55.1,54.0,91,76,54,29.87,29.73,18,3,27,0.00
2013-4-30,67.6,61.7,58.7,54.0,53.4,52.0,82,74,63,29.87,29.78,19,4,27,0.00
2013-5-1,79.6,66.5,60.1,56.0,54.4,52.0,81,67,40,30.06,29.87,17,3,29,0.00
2013-5-2,93.6,72.1,55.3,56.0,48.0,34.0,92,52,13,30.08,29.94,22,3,35,0.00
2013-5-3,95.9,76.7,60.1,56.0,33.6,18.0,71,27,6,29.97,29.73,25,4,32,0.00
2013-5-4,72.1,64.9,60.4,58.0,55.2,51.0,91,72,54,29.82,29.70,22,5,37,0.00
2013-5-5,66.4,62.0,58.1,55.0,51.8,50.0,87,70,55,29.92,29.80,22,7,41,0.00
2013-5-6,68.9,61.9,56.6,59.0,54.6,50.0,96,78,53,29.98,29.87,24,4,34,0.36
2013-5-7,71.3,63.8,57.2,56.0,51.5,45.0,89,67,40,30.03,29.95,23,5,33,0.04
2013-5-8,70.9,64.3,59.6,55.0,51.1,45.0,84,64,41,30.06,30.02,25,5,34,0.00
2013-5-9,73.7,64.1,55.9,58.0,54.1,51.0,86,71,48,30.06,29.98,18,3,33,0.03
2013-5-10,78.8,66.8,58.0,59.0,57.1,54.0,93,73,49,30.05,29.96,22,3,32,0.00
2013-5-11,89.0,69.8,59.8,62.0,59.1,57.0,92,71,35,30.04,29.93,21,3,26,0.00
2013-5-12,90.1,74.0,60.2,61.0,58.7,53.0,93,63,30,30.02,29.85,16,3,27,0.00
2013-5-13,96.8,79.4,65.5,62.0,55.6,47.0,84,49,20,29.92,29.81,32,5,32,0.00
2013-5-14,84.0,68.8,60.5,57.0,53.8,47.0,86,61,27,29.96,29.86,25,6,35,0.00
2013-5-15,76.7,65.7,59.0,56.0,54.9,52.0,87,70,45,30.00,29.90,20,4,37,0.00
2013-5-16,73.0,64.8,61.2,57.0,54.8,54.0,81,71,57,29.95,29.86,21,4,28,0.00
2013-5-17,73.2,66.4,61.8,58.0,55.7,53.0,82,69,54,29.96,29.87,22,4,31,0.00
2013-5-18,76.8,66.8,59.5,57.0,54.8,53.0,87,67,46,30.00,29.92,21,4,36,0.00
2013-5-19,77.4,67.8,58.7,58.0,55.9,54.0,86,67,49,29.95,29.83,20,3,28,0.00
2013-5-20,85.5,70.6,59.6,62.0,58.5,56.0,90,68,40,29.92,29.83,16,3,25,0.00
2013-5-21,82.4,69.2,63.4,60.0,59.3,58.0,87,73,46,29.90,29.80,24,4,29,0.00
2013-5-22,76.8,67.5,63.4,59.0,56.1,54.0,83,68,48,29.82,29.74,22,4,33,0.00
2013-5-23,73.3,65.4,59.6,56.0,52.9,50.0,80,65,47,29.89,29.79,19,5,28,0.00
2013-5-24,74.4,65.4,58.1,55.0,53.0,50.0,77,65,47,29.95,29.88,20,4,32,0.00
2013-5-25,75.8,65.0,58.1,56.0,53.0,50.0,82,67,44,29.99,29.93,20,4,29,0.00
2013-5-26,73.3,65.1,57.6,56.0,54.1,53.0,85,69,51,30.01,29.95,21,4,30,0.00
2013-5-27,76.8,67.4,59.9,57.0,55.6,54.0,85,67,49,29.96,29.82,21,4,35,0.00
2013-5-28,78.8,68.6,62.6,61.0,57.9,53.0,84,70,42,29.85,29.69,27,5,33,0.00
2013-5-29,81.2,70.1,62.0,61.0,57.7,51.0,89,68,37,29.77,29.67,25,5,43,0.00
2013-5-30,80.3,69.6,61.2,61.0,59.5,58.0,91,72,49,29.84,29.73,27,3,27,0.00
2013-5-31,81.8,69.6,63.2,61.0,59.1,58.0,83,70,46,29.88,29.77,18,3,25,0.00
2013-6-1,84.9,70.9,63.9,64.0,61.2,59.0,87,73,48,29.82,29.70,17,4,28,0.00
2013-6-2,73.2,67.0,63.7,61.0,59.3,57.0,84,77,64,29.80,29.73,23,4,33,0.00
2013-6-3,76.8,67.3,63.2,59.0,57.1,56.0,78,71,51,29.86,29.77,22,4,31,0.00
2013-6-4,77.4,66.8,62.4,58.0,57.1,56.0,81,72,48,29.93,29.85,22,4,26,0.00
2013-6-5,74.6,66.1,61.3,58.0,56.3,55.0,84,72,53,29.97,29.87,20,4,31,0.00
2013-6-6,76.3,65.8,61.0,59.0,57.4,57.0,87,75,55,29.92,29.83,19,4,34,0.00
2013-6-7,76.0,65.9,60.9,61.0,57.4,56.0,85,75,56,29.88,29.75,18,3,25,0.00
2013-6-8,74.4,66.4,62.7,59.0,57.9,57.0,84,75,58,29.87,29.75,21,4,28,0.00
2013-6-9,75.1,65.9,61.8,59.0,57.4,56.0,85,75,57,29.89,29.83,16,3,28,0.00
2013-6-10,79.0,68.3,61.8,58.0,56.1,54.0,82,67,44,29.91,29.86,19,4,35,0.00
2013-6-11,82.6,70.2,61.2,61.0,58.9,56.0,89,69,43,29.90,29.84,22,4,30,0.00
2013-6-12,75.3,66.9,63.7,61.0,59.4,57.0,87,77,60,29.99,29.89,25,5,33,0.00
2013-6-13,79.9,67.9,62.4,59.0,58.1,57.0,84,72,49,29.98,29.86,18,4,26,0.00
2013-6-14,76.8,66.8,61.2,59.0,57.5,56.0,88,73,51,29.89,29.80,17,4,29,0.00
2013-6-15,77.4,66.6,62.0,58.0,56.2,54.0,83,70,45,29.94,29.86,24,4,28,0.00
2013-6-16,79.2,68.0,62.3,58.0,56.9,55.0,83,69,47,30.00,29.90,22,4,32,0.00
2013-6-17,81.1,68.9,59.3,60.0,58.1,56.0,90,71,44,29.95,29.84,16,3,26,0.00
2013-6-18,80.7,69.4,61.8,61.0,58.3,54.0,91,70,47,29.89,29.79,23,5,28,0.00
2013-6-19,79.0,70.2,62.3,59.0,55.9,48.0,87,63,34,29.84,29.75,18,4,33,0.00
2013-6-20,81.2,71.2,61.2,61.0,56.6,48.0,91,63,33,29.82,29.76,16,4,29,0.00
2013-6-21,82.0,71.3,62.3,61.0,58.0,55.0,91,65,43,29.87,29.79,18,4,33,0.00
2013-6-22,78.8,70.1,63.4,61.0,58.7,56.0,87,69,46,29.87,29.77,20,4,28,0.00
2013-6-23,75.1,67.7,64.0,61.0,57.8,56.0,84,71,53,29.85,29.75,25,4,36,0.00
2013-6-24,77.2,68.2,63.7,60.0,58.1,57.0,84,71,53,29.90,29.79,22,4,26,0.00
2013-6-25,76.8,68.8,63.7,62.0,60.3,59.0,88,75,57,29.96,29.86,20,3,25,0.00
2013-6-26,86.5,74.2,63.1,64.0,61.8,60.0,92,67,44,29.94,29.85,16,4,32,0.00
2013-6-27,90.5,76.0,65.5,65.0,63.2,61.0,92,67,38,29.98,29.91,16,4,32,0.00
2013-6-28,93.2,76.5,64.2,65.0,62.7,60.0,95,66,36,29.95,29.81,17,4,29,0.00
2013-6-29,94.9,79.0,67.3,65.0,62.1,60.0,83,59,34,29.84,29.68,18,3,27,0.00
2013-6-30,89.7,75.7,68.4,67.0,64.8,62.0,88,71,43,29.77,29.66,23,4,32,0.00
2013-7-1,94.0,76.0,66.4,66.0,64.3,56.0,92,70,28,29.85,29.75,21,3,28,0.00
2013-7-2,83.6,73.7,67.8,66.0,64.6,63.0,90,74,53,29.95,29.83,20,4,35,0.00
2013-7-3,83.8,71.8,65.0,65.0,63.0,61.0,92,75,49,29.89,29.76,15,3,21,0.00
2013-7-4,84.9,72.6,65.2,63.0,61.9,61.0,89,71,45,29.79,29.70,23,4,24,0.00
2013-7-5,82.4,71.7,66.1,63.0,61.7,61.0,84,72,49,29.80,29.71,22,3,31,0.00
2013-7-6,84.3,70.9,66.4,64.0,62.2,61.0,85,75,48,29.79,29.70,19,2,25,0.00
2013-7-7,81.4,72.1,66.3,64.0,62.4,61.0,83,72,51,29.82,29.72,16,5,26,0.00
2013-7-8,87.0,72.1,63.2,64.0,60.5,56.0,89,69,37,29.88,29.80,20,4,25,0.00
2013-7-9,84.7,74.5,64.8,64.0,61.8,60.0,88,66,45,29.95,29.85,21,4,29,0.00
2013-7-10,78.3,73.0,68.4,65.0,63.7,62.0,84,73,57,29.92,29.85,17,2,24,0.00
2013-7-11,76.3,72.0,69.3,66.0,64.8,63.0,85,78,69,29.92,29.84,13,2,16,0.00
2013-7-12,86.1,72.0,63.7,66.0,63.4,60.0,88,76,47,29.89,29.80,22,3,27,0.00
2013-7-13,84.1,70.6,62.7,63.0,61.1,59.0,90,74,46,29.92,29.80,18,4,26,0.00
2013-7-14,87.0,73.1,62.9,64.0,61.3,56.0,91,69,43,29.89,29.77,16,3,27,0.00
2013-7-15,85.5,73.2,65.6,65.0,60.4,51.0,91,67,36,29.83,29.74,24,5,29,0.00
2013-7-16,86.7,71.7,61.0,60.0,56.4,50.0,89,62,31,29.94,29.81,20,4,29,0.00
2013-7-17,87.8,72.8,60.1,58.0,53.9,46.0,88,56,23,29.97,29.90,24,4,34,0.00
2013-7-18,84.7,71.1,60.7,62.0,58.6,56.0,90,67,39,29.94,29.80,20,4,27,0.00
2013-7-19,82.4,71.3,63.1,63.0,61.3,60.0,90,72,49,29.86,29.77,23,3,26,0.00
2013-7-20,78.6,69.3,66.0,64.0,62.1,61.0,85,78,61,29.85,29.74,19,2,23,0.00
2013-7-21,72.0,68.5,65.2,64.0,62.4,61.0,88,81,74,29.88,29.76,15,1,22,0.00
2013-7-22,85.3,73.0,66.1,65.0,62.7,61.0,87,71,50,29.93,29.86,19,4,30,0.00
2013-7-23,82.2,71.0,65.3,63.0,61.0,58.0,88,72,49,29.98,29.88,22,5,30,0.00
2013-7-24,79.8,69.1,63.1,64.0,60.5,59.0,89,75,52,29.93,29.85,26,4,29,0.02
2013-7-25,82.8,69.0,62.3,63.0,60.2,59.0,90,75,50,29.97,29.88,21,4,25,0.00
2013-7-26,82.8,70.8,64.8,64.0,61.5,59.0,89,73,51,30.05,29.92,16,4,23,0.02
2013-7-27,83.8,69.7,63.4,63.0,60.4,58.0,87,74,49,29.97,29.83,18,4,24,0.00
2013-7-28,79.0,68.0,63.2,61.0,59.7,59.0,87,76,53,29.89,29.82,22,3,29,0.00
2013-7-29,79.6,68.9,64.0,59.0,57.7,57.0,82,69,47,30.00,29.88,19,3,30,0.00
2013-7-30,78.8,67.9,61.0,59.0,58.0,56.0,89,72,48,30.08,29.99,22,5,28,0.00
2013-7-31,74.9,66.5,61.5,59.0,57.7,56.0,86,74,56,30.07,29.95,18,4,28,0.00
2013-8-1,78.3,67.7,62.4,59.0,57.9,57.0,84,72,49,29.99,29.86,19,3,27,0.00
2013-8-2,81.1,69.5,63.1,61.0,59.2,57.0,87,71,47,29.93,29.85,18,4,27,0.00
2013-8-3,81.4,70.0,63.2,63.0,59.7,59.0,87,71,49,29.96,29.87,24,5,30,0.00
2013-8-4,80.1,68.3,62.0,61.0,59.4,58.0,88,75,50,29.98,29.88,19,4,29,0.00
2013-8-5,84.0,68.1,59.9,60.0,58.4,56.0,92,74,43,29.97,29.88,25,4,25,0.00
2013-8-6,80.5,68.1,61.8,66.0,58.1,54.0,94,72,42,30.00,29.93,19,4,30,0.01
2013-8-7,80.9,67.7,61.2,60.0,58.1,56.0,89,73,44,30.05,29.93,16,3,30,0.00
2013-8-8,81.8,68.5,59.6,60.0,58.3,57.0,92,72,45,29.96,29.86,19,3,26,0.00
2013-8-9,78.3,67.6,60.1,59.0,58.1,57.0,90,73,49,29.93,29.87,19,3,26,0.00
2013-8-10,78.5,68.3,62.3,60.0,58.1,55.0,86,72,49,29.96,29.91,17,4,28,0.00
2013-8-11,81.6,68.3,60.7,60.0,58.8,54.0,92,74,40,29.96,29.84,22,3,24,0.00
2013-8-12,82.8,68.9,61.2,61.0,59.7,58.0,91,74,46,29.94,29.85,20,4,26,0.00
2013-8-13,83.8,69.6,62.6,62.0,60.3,59.0,90,74,45,29.94,29.82,21,3,26,0.00
2013-8-14,84.0,70.2,63.7,64.0,61.5,60.0,90,76,49,29.89,29.78,20,3,30,0.00
2013-8-15,87.0,72.3,63.1,63.0,61.8,60.0,92,72,41,29.91,29.82,18,2,27,0.00
2013-8-16,86.1,73.7,64.7,65.0,61.7,57.0,90,69,44,29.91,29.84,15,3,25,0.00
2013-8-17,85.7,72.1,63.9,62.0,60.0,56.0,87,68,39,29.91,29.77,20,4,27,0.00
2013-8-18,82.4,70.1,62.1,63.0,61.1,60.0,94,75,51,29.87,29.77,18,3,26,0.00
2013-8-19,83.0,70.1,64.7,63.0,61.7,61.0,87,76,49,29.91,29.81,14,3,27,0.00
2013-8-20,82.4,69.7,63.1,62.0,60.6,59.0,91,74,46,29.89,29.79,19,4,24,0.00
2013-8-21,84.0,71.5,62.0,62.0,58.9,53.0,91,67,40,29.88,29.78,22,4,29,0.00
2013-8-22,87.2,74.3,63.2,61.0,56.5,48.0,87,57,27,29.88,29.75,20,4,30,0.00
2013-8-23,92.1,73.9,62.0,61.0,57.4,52.0,87,60,28,29.83,29.68,12,2,14,0.02
2013-8-24,86.5,70.9,60.1,62.0,59.0,56.0,97,69,38,29.84,29.71,9,2,12,0.00
2013-8-25,86.5,71.2,59.5,61.0,58.6,53.0,97,69,32,29.87,29.80,8,3,11,0.00
2013-8-26,92.5,77.7,65.2,62.0,57.1,44.0,84,53,27,29.87,29.76,12,3,14,0.00
2013-8-27,88.2,76.5,69.3,63.0,59.0,51.0,73,57,29,29.80,29.72,10,3,14,0.00
2013-8-28,93.2,77.7,66.6,62.0,58.3,45.0,81,55,23,29.84,29.73,10,2,14,0.00
2013-8-29,97.8,81.1,67.8,63.0,58.0,48.0,81,50,25,29.87,29.81,11,2,14,0.00
2013-8-30,93.2,84.1,74.9,70.0,64.6,59.0,68,53,38,29.92,29.84,13,3,19,0.00
2013-8-31,91.8,82.2,75.8,70.0,66.0,60.0,68,59,45,29.91,29.81,11,3,17,0.00
2013-9-1,88.4,78.1,71.8,69.0,66.7,63.0,83,69,51,29.88,29.79,14,4,15,0.00
2013-9-2,88.6,76.7,68.9,68.0,66.8,66.0,91,73,50,29.87,29.74,10,3,16,0.00
2013-9-3,95.9,80.6,70.9,68.0,65.0,60.0,85,62,31,29.85,29.76,7,2,15,0.00
2013-9-4,96.1,81.4,71.6,66.0,62.4,58.0,77,55,31,29.86,29.77,9,2,16,0.00
2013-9-5,97.1,81.5,70.9,65.0,61.0,56.0,76,52,28,29.84,29.75,11,3,15,0.00
2013-9-6,99.2,81.4,69.6,65.0,59.8,53.0,82,52,23,29.82,29.73,11,2,15,0.00
2013-9-7,97.1,79.3,70.1,64.0,60.6,51.0,79,56,27,29.80,29.73,10,2,16,0.00
2013-9-8,85.9,73.2,65.5,63.0,60.2,56.0,87,66,43,29.80,29.69,10,3,15,0.00
2013-9-9,80.9,69.4,63.2,61.0,60.1,59.0,90,74,49,29.77,29.69,9,3,14,0.00
2013-9-10,79.6,68.3,61.2,60.0,58.6,58.0,90,73,49,29.90,29.77,12,3,13,0.00
2013-9-11,80.7,68.3,62.0,61.0,59.6,59.0,91,75,49,29.96,29.87,11,2,14,0.00
2013-9-12,85.9,71.0,60.5,62.0,59.7,58.0,94,70,40,29.90,29.77,11,2,13,0.00
2013-9-13,86.5,72.6,61.2,61.0,59.8,57.0,92,67,39,29.79,29.61,10,2,14,0.00
2013-9-14,88.4,73.8,63.7,65.0,60.5,57.0,90,65,38,29.67,29.58,9,2,11,0.00
2013-9-15,91.6,73.8,64.0,64.0,61.4,58.0,92,68,36,29.72,29.65,10,2,15,0.00
2013-9-16,89.3,73.5,63.9,63.0,59.6,56.0,90,65,35,29.78,29.68,13,3,16,0.00
2013-9-17,78.5,68.3,62.1,62.0,60.6,59.0,99,78,51,29.78,29.68,8,2,12,0.00
2013-9-18,77.7,69.0,62.4,61.0,59.1,57.0,92,72,52,29.77,29.70,13,3,18,0.00
2013-9-19,81.2,68.7,60.7,62.0,60.5,58.0,94,76,51,29.79,29.71,12,2,15,0.00
2013-9-20,71.6,67.9,66.3,62.0,61.0,60.0,83,79,70,29.85,29.77,7,2,11,0.00
2013-9-21,77.7,68.6,63.4,61.0,58.5,56.0,85,71,49,29.87,29.75,11,3,17,0.00
2013-9-22,77.7,67.8,59.2,59.0,54.2,46.0,91,65,36,29.81,29.73,14,2,14,0.00
2013-9-23,93.4,74.0,60.2,56.0,48.5,39.0,74,46,16,29.84,29.75,8,3,12,0.00
2013-9-24,86.3,73.1,61.6,60.0,51.4,41.0,79,52,21,29.88,29.78,9,2,15,0.00
2013-9-25,74.9,67.6,61.8,60.0,57.0,50.0,88,70,56,29.80,29.66,10,3,16,0.00
2013-9-26,74.9,67.3,61.0,56.0,49.1,32.0,77,55,21,29.84,29.69,19,4,25,0.00
2013-9-27,84.3,68.2,55.9,50.0,42.7,29.0,73,45,15,29.94,29.84,12,3,17,0.00
2013-9-28,89.3,71.7,58.7,48.0,36.7,25.0,56,32,10,29.99,29.90,13,3,15,0.00
2013-9-29,87.0,69.8,55.9,56.0,43.3,32.0,76,42,14,30.02,29.91,9,2,15,0.00
2013-9-30,84.0,69.2,56.0,60.0,50.9,41.0,91,57,23,29.94,29.80,9,2,16,0.00
2013-10-1,80.5,68.4,58.3,62.0,57.0,46.0,93,70,30,29.89,29.81,11,2,15,0.00
2013-10-2,76.8,67.6,63.4,60.0,58.1,56.0,86,73,52,29.93,29.82,10,3,14,0.00
2013-10-3,74.7,67.1,62.0,60.0,58.5,55.0,89,75,54,29.89,29.77,10,2,13,0.00
2013-10-4,88.6,72.3,60.7,60.0,53.8,35.0,89,58,15,29.99,29.84,9,2,14,0.00
2013-10-5,92.5,73.5,57.3,50.0,33.3,18.0,60,29,7,30.07,29.96,10,3,17,0.00
2013-10-6,93.2,74.3,58.6,51.0,30.8,16.0,57,24,6,30.04,29.90,11,3,13,0.00
2013-10-7,86.5,69.2,59.3,60.0,45.3,33.0,85,47,16,29.93,29.85,10,2,13,0.00
2013-10-8,73.7,64.6,56.9,57.0,55.2,53.0,90,73,49,29.89,29.77,9,3,16,0.00
2013-10-9,65.3,61.0,53.8,55.0,49.8,43.0,81,67,49,29.79,29.67,17,4,22,0.02
2013-10-10,68.6,59.0,50.1,52.0,47.8,44.0,89,69,42,29.97,29.76,8,3,13,0.00
2013-10-11,75.3,61.7,51.1,56.0,51.3,47.0,88,71,38,30.01,29.90,10,2,13,0.00
2013-10-12,76.8,63.2,53.2,58.0,54.5,51.0,92,76,44,29.94,29.84,9,2,13,0.00
2013-10-13,71.1,63.8,58.4,58.0,54.2,52.0,88,72,53,29.98,29.90,11,2,16,0.00
2013-10-14,84.1,66.9,54.7,56.0,51.7,44.0,90,63,26,29.98,29.84,12,2,12,0.00
2013-10-15,88.2,70.6,56.9,54.0,38.5,29.0,74,36,13,29.92,29.81,10,2,14,0.00
2013-10-16,86.7,71.1,58.1,40.0,32.9,25.0,45,27,11,30.02,29.92,11,2,14,0.00
2013-10-17,84.0,67.6,56.0,52.0,38.9,31.0,69,38,15,29.99,29.87,10,2,16,0.00
2013-10-18,85.1,66.9,54.5,54.0,48.3,39.0,75,55,20,29.97,29.87,9,2,11,0.00
2013-10-19,87.0,67.3,54.5,58.0,48.7,34.0,86,57,16,29.98,29.90,8,2,13,0.00
2013-10-20,78.1,64.0,55.3,59.0,55.9,51.0,95,77,44,29.95,29.85,8,2,11,0.00
2013-10-21,78.3,63.5,56.3,57.0,55.5,50.0,96,78,38,29.95,29.85,6,2,12,0.00
2013-10-22,76.1,62.9,54.1,58.0,55.9,52.0,96,80,50,29.96,29.85,8,2,12,0.00
2013-10-23,69.8,62.8,57.8,57.0,55.4,54.0,92,77,61,29.93,29.85,9,2,13,0.00
2013-10-24,70.3,63.6,58.0,56.0,55.0,54.0,86,74,57,30.01,29.91,10,2,14,0.00
2013-10-25,73.7,63.2,56.0,58.0,55.8,53.0,92,78,53,30.09,29.95,6,2,9,0.00
2013-10-26,78.8,63.0,56.3,60.0,57.2,54.0,98,83,46,30.05,29.92,7,2,10,0.00
2013-10-27,73.5,62.7,55.9,60.0,57.2,54.0,99,83,59,29.93,29.77,10,2,12,0.01
2013-10-28,66.9,61.0,57.2,56.0,50.3,42.0,90,69,41,29.89,29.78,13,4,18,0.01
2013-10-29,66.1,58.5,51.3,52.0,49.2,44.0,96,73,46,29.97,29.89,11,2,17,0.00
2013-10-30,72.1,59.1,49.9,54.0,49.0,42.0,91,72,34,30.04,29.94,9,2,15,0.00
2013-10-31,81.4,63.4,50.2,51.0,43.7,30.0,87,56,16,30.05,29.93,10,2,14,0.00
2013-11-1,88.0,67.5,51.1,48.0,38.7,30.0,73,42,13,30.07,29.88,6,2,10,0.00
2013-11-2,83.2,66.5,56.0,60.0,43.9,33.0,92,49,16,29.95,29.83,9,2,16,0.00
2013-11-3,68.9,62.9,58.9,59.0,54.1,48.0,91,73,57,29.89,29.78,10,2,12,0.00
2013-11-4,67.8,62.0,56.0,55.0,52.8,50.0,85,72,54,29.91,29.77,9,2,14,0.00
2013-11-5,76.3,62.0,51.3,53.0,42.9,28.0,91,56,17,30.11,29.91,10,2,15,0.00
2013-11-6,83.2,65.9,53.2,42.0,27.8,17.0,52,27,9,30.17,30.06,7,3,9,0.00
2013-11-7,86.5,69.7,59.6,44.0,29.4,18.0,53,25,8,30.08,29.95,9,3,11,0.00
2013-11-8,77.2,64.1,52.3,58.0,43.4,33.0,95,51,20,30.01,29.88,6,2,11,0.00
2013-11-9,77.2,63.2,54.1,58.0,48.9,28.0,94,68,17,30.04,29.95,6,2,10,0.00
2013-11-10,83.0,61.9,50.7,56.0,46.3,26.0,89,62,13,30.09,29.99,9,2,17,0.00
2013-11-11,79.4,62.3,48.6,56.0,46.9,39.0,88,62,25,30.10,29.98,7,2,14,0.00
2013-11-12,77.9,63.7,53.9,52.0,47.1,41.0,85,59,27,30.13,30.01,4,1,8,0.00
2013-11-13,93.8,71.7,56.3,47.0,39.6,32.0,65,36,11,30.02,29.84,7,2,11,0.00
2013-11-14,91.2,72.1,60.9,61.0,39.9,30.0,92,37,12,29.89,29.73,7,2,12,0.00
2013-11-15,68.6,63.0,58.7,60.0,55.6,53.0,92,77,62,29.73,29.63,8,2,15,0.00
2013-11-16,66.4,60.5,55.3,55.0,50.6,47.0,92,71,50,29.91,29.72,8,2,13,0.00
2013-11-17,69.1,60.0,53.5,54.0,50.9,48.0,86,73,47,30.07,29.91,6,2,12,0.00
2013-11-18,68.4,59.8,52.3,54.0,52.4,49.0,90,77,59,30.13,30.01,8,3,13,0.00
2013-11-19,66.6,60.8,57.2,53.0,52.3,51.0,83,74,58,30.05,29.91,7,2,11,0.00
2013-11-20,66.0,60.2,55.1,57.0,53.7,52.0,93,80,62,29.95,29.85,8,2,9,0.03
2013-11-21,64.3,59.8,56.3,60.0,55.8,52.0,98,87,70,29.86,29.80,9,3,14,0.04
2013-11-22,62.7,57.3,53.1,53.0,46.4,39.0,91,69,44,29.93,29.80,8,1,11,0.00
2013-11-23,69.3,58.0,50.8,48.0,42.7,37.0,77,59,31,30.06,29.92,9,2,11,0.00
2013-11-24,69.3,57.2,48.2,46.0,42.5,40.0,77,60,37,30.16,30.06,6,2,10,0.00
2013-11-25,72.1,58.3,47.9,50.0,42.9,39.0,80,60,31,30.21,30.12,7,2,10,0.00
2013-11-26,78.6,61.7,48.3,47.0,42.4,33.0,81,54,20,30.16,30.00,7,2,10,0.00
2013-11-27,74.9,63.3,53.2,42.0,38.6,35.0,60,42,23,30.01,29.84,8,2,11,0.00
2013-11-28,69.9,59.6,49.1,53.0,45.8,40.0,85,62,36,30.02,29.86,7,2,13,0.00
2013-11-29,64.0,58.6,55.1,54.0,51.6,48.0,93,78,61,30.16,30.03,9,2,13,0.23
2013-11-30,77.2,61.5,50.8,52.0,48.4,44.0,90,66,33,30.16,30.03,9,2,10,0.00
2013-12-1,80.5,64.2,54.1,49.0,40.3,34.0,77,46,19,30.19,30.05,6,2,9,0.00
2013-12-2,74.4,60.9,50.7,46.0,37.8,32.0,70,45,21,30.09,29.88,7,1,8,0.00
2013-12-3,64.3,57.0,49.4,53.0,47.8,41.0,83,71,64,29.88,29.71,10,3,16,0.00
2013-12-4,62.6,53.2,46.4,46.0,35.7,23.0,82,54,30,29.94,29.74,12,2,16,0.00
2013-12-5,60.2,51.4,45.2,39.0,36.0,27.0,75,58,29,30.08,29.93,8,2,11,0.00
2013-12-6,58.3,51.1,43.9,41.0,38.9,36.0,77,64,49,30.15,30.06,9,3,11,0.00
2013-12-7,58.0,48.6,41.5,49.0,40.6,34.0,93,75,54,30.10,29.97,9,2,17,0.08
2013-12-8,57.3,46.8,37.8,40.0,35.8,31.0,89,68,41,30.19,30.08,8,2,11,0.00
2013-12-9,63.4,48.6,37.6,37.0,26.0,11.0,80,48,13,30.27,30.17,6,2,10,0.00
2013-12-10,66.3,50.6,39.2,35.0,19.3,7.0,53,32,11,30.26,30.05,9,3,10,0.00
2013-12-11,74.4,56.2,43.6,38.0,23.4,14.0,57,31,10,30.13,30.05,8,2,10,0.00
2013-12-12,67.4,55.7,47.1,50.0,39.8,23.0,87,58,32,30.18,30.09,6,2,10,0.00
2013-12-13,65.6,53.2,44.6,50.0,43.6,36.0,89,73,34,30.20,30.09,7,2,8,0.00
2013-12-14,74.7,57.0,43.6,44.0,35.6,28.0,88,52,18,30.27,30.15,8,2,9,0.00
2013-12-15,80.5,63.5,48.8,34.0,26.6,18.0,47,27,10,30.21,30.04,7,2,9,0.00
2013-12-16,86.5,67.7,55.7,42.0,32.7,26.0,47,29,12,30.09,30.00,7,2,10,0.00
2013-12-17,79.4,67.0,55.7,49.0,39.6,32.0,58,38,23,30.09,29.97,6,2,8,0.00
2013-12-18,69.9,61.4,55.3,54.0,50.8,46.0,85,70,44,29.96,29.82,8,2,13,0.00
2013-12-19,57.2,53.6,46.8,51.0,46.6,43.0,89,77,61,29.83,29.68,9,2,12,0.03
2013-12-20,62.9,51.7,42.2,50.0,45.1,41.0,95,80,53,29.92,29.75,8,2,10,0.00
2013-12-21,63.2,52.8,46.0,50.0,46.5,43.0,90,80,54,30.06,29.89,6,2,10,0.00
2013-12-22,69.9,54.4,44.3,50.0,46.0,42.0,92,76,39,30.23,30.06,9,2,11,0.00
2013-12-23,75.6,59.5,47.1,47.0,40.0,34.0,90,54,22,30.28,30.15,7,2,11,0.00
2013-12-24,79.9,62.9,52.5,42.0,37.3,32.0,59,42,18,30.16,30.04,5,2,11,0.00
2013-12-25,81.8,63.3,48.3,39.0,30.1,21.0,60,33,11,30.17,30.06,7,2,8,0.00
2013-12-26,81.8,63.0,51.3,27.0,20.7,11.0,34,22,7,30.14,30.02,7,2,10,0.00
2013-12-27,83.8,61.8,50.2,29.0,19.1,-99.9,33,22,7,30.12,29.99,9,-19,10,0.00
2013-12-28,71.1,58.8,49.6,53.0,38.2,26.0,93,51,19,30.00,29.89,7,2,11,0.00
2013-12-29,76.0,58.8,43.8,52.0,34.8,17.0,97,52,11,30.11,29.97,8,2,8,0.00
2013-12-30,74.7,58.3,46.5,39.0,26.0,17.0,63,32,12,30.23,30.11,7,2,9,0.00
2013-12-31,72.5,55.8,43.5,46.0,33.6,24.0,81,47,17,30.17,30.04,5,1,8,0.00
2014-1-1,72.3,55.9,43.1,52.0,42.2,36.0,82,63,28,30.11,30.00,5,1,9,0.00
2014-1-2,82.0,62.2,47.4,50.0,36.8,27.0,83,45,14,30.07,29.94,7,2,9,0.00